This is the latest recevied weather packets stored in our database for station/object KD5NDU-15. If no packets are shown the sender has not sent any weather packets the latest 10 day(s).
| Time | Temp. | Humidity | Pressure | Rain* | Wind** | Luminosity | Snow |
|---|---|---|---|---|---|---|---|
| 1778104908 | 13.89° C | 96% | 1009.3 hPa | 0 mm | - | 113 W/m² | - |
| 1778104608 | 13.89° C | 95% | 1009.7 hPa | 0 mm | - | 97 W/m² | - |
| 1778104308 | 13.89° C | 95% | 1009.6 hPa | 0 mm | - | 58 W/m² | - |
| 1778104008 | 13.89° C | 96% | 1010.2 hPa | 0 mm | - | 30 W/m² | - |
| 1778103710 | 13.89° C | 97% | 1010.6 hPa | 0 mm | - | 56 W/m² | - |
| 1778103417 | 13.89° C | 96% | 1010.6 hPa | 0 mm | - | 162 W/m² | - |
| 1778103108 | 13.89° C | 96% | 1010.8 hPa | 0 mm | - | 142 W/m² | - |
| 1778102808 | 13.89° C | 97% | 1010.7 hPa | 0 mm | - | 123 W/m² | - |
| 1778102508 | 13.89° C | 96% | 1010.7 hPa | 0 mm | - | 67 W/m² | - |
| 1778102208 | 13.89° C | 96% | 1011 hPa | 0 mm | - | 58 W/m² | - |
| 1778101908 | 13.89° C | 96% | 1011.2 hPa | 0 mm | - | 62 W/m² | - |
| 1778101608 | 14.44° C | 96% | 1011.3 hPa | 0 mm | - | 79 W/m² | - |
| 1778101310 | 14.44° C | 96% | 1011.2 hPa | 0 mm | - | 83 W/m² | - |
| 1778101008 | 14.44° C | 96% | 1011.1 hPa | 0 mm | - | 63 W/m² | - |
| 1778100712 | 15° C | 95% | 1011 hPa | 0 mm | - | 72 W/m² | - |
| 1778100408 | 15° C | 94% | 1011.2 hPa | 0 mm | - | 79 W/m² | - |
| 1778100108 | 15° C | 94% | 1011 hPa | 0 mm | - | 51 W/m² | - |
| 1778099808 | 15.56° C | 94% | 1011 hPa | 0 mm | - | 44 W/m² | - |
| 1778099510 | 15.56° C | 94% | 1010.8 hPa | 0 mm | - | 86 W/m² | - |
| 1778099208 | 15.56° C | 94% | 1010.4 hPa | 0 mm | - | 90 W/m² | - |
| 1778098910 | 15.56° C | 94% | 1010.3 hPa | 0 mm | - | 102 W/m² | - |
| 1778098636 | 15.56° C | 94% | 1010.3 hPa | 0 mm | - | 102 W/m² | - |
| 1778098308 | 15.56° C | 94% | 1010.2 hPa | 0 mm | - | 160 W/m² | - |
| 1778098022 | 15.56° C | 94% | 1010.2 hPa | 0 mm | - | 137 W/m² | - |
| 1778097710 | 15.56° C | 94% | 1010.3 hPa | 0 mm | - | 171 W/m² | - |
* Rain latest hour (hover to see other rain measurements)
** Current wind speed in m/s (hover to see current wind gust speed)